Main page
METAR-TAF:

METAR-TAF

Airports :

Payam International Airport

Karaj, Iran

latitude: 35-46-34N, longitude: 050-49-36E, elevation: 1271 m

Current weather observation

The report was made 32 minutes ago, at 00:00 UTC
Wind 8 kt from the North
Temperature -2°C
Humidity 100%
Pressure 1025 hPa
Visibility: 0500 m
Scattered clouds at a height of 2000 ft
fog

METAR: OIIP 180000Z 35008KT 0500 FG SCT020 M02/M02 Q1025 A3028

Time: 04:02 (00:32 UTC)


TAF: missing

Weather observations and forecasts of more than 4000 airports (METAR and TAF reports).

The available stations are represented by yellow and red dots on the map.

Hover mouse over dot to see the name of the station.

Then click to see weather observations and forecasts.

To change the map : click on the green buttons with a black cross to zoom in, on the green button with a dash to zoom out, or on the green arrows for adjacent maps.


METAR-TAF: